Location: Newark
(39.0083°N, 20.7336°E)
Time: 14:36:09
(UTC+00:00)

N. Korean satellite - Pass Details

Date: 23 September 2021
Orbit: 450 x 495 km, 97.3° (Epoch: 19 October)

Event Time Altitude Azimuth Distance (km) Brightness Sun altitude
Rises 02:55:00 0° 33° (NNE) 2,523 11.0 -18.2°
Reaches altitude 10° 02:57:50 10° 59° (ENE) 1,650 10.4 -17.7°
Maximum altitude 02:59:50 14° 93° (E) 1,399 9.9 -17.3°
Drops below altitude 10° 03:01:52 10° 128° (SE) 1,657 9.8 -16.9°
Sets 03:04:42 0° 153° (SSE) 2,541 10.4 -16.4°
